This is the latest recevied weather packets stored in our database for station/object K5BOU. If no packets are shown the sender has not sent any weather packets the latest 10 day(s).
| Time | Temp. | Humidity | Pressure | Rain* | Wind** | Luminosity | Snow |
|---|---|---|---|---|---|---|---|
| 1777648015 | 17.22° C | 99% | 1008.6 hPa | 0 mm | - | 26 W/m² | - |
| 1777647711 | 17.22° C | 99% | 1008.5 hPa | 0 mm | - | 74 W/m² | - |
| 1777647407 | 17.22° C | 99% | 1008.5 hPa | 0 mm | - | 147 W/m² | - |
| 1777647105 | 17.22° C | 99% | 1008.5 hPa | 0 mm | - | 114 W/m² | - |
| 1777646801 | 17.22° C | 99% | 1008.5 hPa | 0 mm | - | 79 W/m² | - |
| 1777646496 | 17.22° C | 99% | 1008.7 hPa | 0 mm | - | 92 W/m² | - |
| 1777646193 | 17.22° C | 99% | 1009 hPa | 0 mm | - | 97 W/m² | - |
| 1777645891 | 17.22° C | 99% | 1009.1 hPa | 0 mm | - | 105 W/m² | - |
| 1777645587 | 17.22° C | 99% | 1009.4 hPa | 1.78 mm | - | 93 W/m² | - |
| 1777645283 | 17.22° C | 99% | 1009.3 hPa | 6.1 mm | - | 87 W/m² | - |
| 1777644979 | 17.22° C | 99% | 1009.8 hPa | 6.1 mm | - | 50 W/m² | - |
| 1777644677 | 17.22° C | 99% | 1010 hPa | 1.78 mm | - | 48 W/m² | - |
| 1777644373 | 17.22° C | 99% | 1009.9 hPa | 1.27 mm | - | 45 W/m² | - |
| 1777644070 | 17.22° C | 99% | 1010.2 hPa | 3.05 mm | - | 23 W/m² | - |
| 1777643766 | 17.22° C | 99% | 1009.8 hPa | 4.32 mm | - | 22 W/m² | - |
| 1777643464 | 17.22° C | 99% | 1010.5 hPa | 4.83 mm | - | 3 W/m² | - |
| 1777643160 | 17.22° C | 99% | 1010.6 hPa | 3.56 mm | - | 3 W/m² | - |
| 1777642857 | 17.22° C | 99% | 1010.4 hPa | 1.27 mm | - | 1 W/m² | - |
| 1777642554 | 17.22° C | 99% | 1010.5 hPa | 0 mm | - | 0 W/m² | - |
| 1777642250 | 17.22° C | 99% | 1009.4 hPa | 0 mm | - | 4 W/m² | - |
| 1777641948 | 17.22° C | 99% | 1009.7 hPa | 0 mm | - | 8 W/m² | - |
| 1777641643 | 17.22° C | 99% | 1010.1 hPa | 0 mm | - | 5 W/m² | - |
| 1777641338 | 17.22° C | 99% | 1009.4 hPa | 0 mm | - | 4 W/m² | - |
| 1777641034 | 17.78° C | 99% | 1009.6 hPa | 0 mm | - | 7 W/m² | - |
| 1777640730 | 17.78° C | 99% | 1009.7 hPa | 0 mm | - | 8 W/m² | - |
* Rain latest hour (hover to see other rain measurements)
** Current wind speed in m/s (hover to see current wind gust speed)